DAL1986 KATL-TKPK

Flight info

Callsign DAL1986
Flight time N/A
Altitude 37000
Route VRSTY3 NOKIE DCT YANTI Q89 MANLE Y185 RENAH Y355 SLUGO DCT PJM L329 ZPATA
Aircraft B738/M-SDE2E3FGHIRWXY/LB1

Departure

Time N/A
Airport Hartsfield Jackson Atlanta International Airport (KATL)

Arrival

Time 2026-04-26 23:49
Airport Robert L. Bradshaw International Airport (TKPK)
Time Latitude Longitude Altitude Speed Heading
2026-04-26 22:54 20.67725 -67.72954 39972 ft 480 kts 137°
2026-04-26 22:55 20.65667 -67.70139 39976 ft 480 kts 137°
2026-04-26 22:55 20.61581 -67.64522 39978 ft 480 kts 137°
2026-04-26 22:56 20.57500 -67.58916 39978 ft 480 kts 137°
2026-04-26 22:56 20.53394 -67.53304 39977 ft 479 kts 137°
2026-04-26 22:57 20.49281 -67.47701 39977 ft 479 kts 137°
2026-04-26 22:57 20.45160 -67.42092 39977 ft 479 kts 137°
2026-04-26 22:58 20.41041 -67.36492 39977 ft 480 kts 137°
2026-04-26 22:58 20.36917 -67.30883 39977 ft 481 kts 137°
2026-04-26 22:59 20.32787 -67.25279 39977 ft 480 kts 137°
2026-04-26 22:59 20.28665 -67.19690 39977 ft 479 kts 137°
2026-04-26 23:00 20.24547 -67.14110 39977 ft 479 kts 137°
2026-04-26 23:00 20.20453 -67.08566 39984 ft 480 kts 137°
2026-04-26 23:01 20.16335 -67.02947 39986 ft 481 kts 137°
2026-04-26 23:01 20.12206 -66.97350 39996 ft 480 kts 137°
2026-04-26 23:02 20.08072 -66.91766 40001 ft 481 kts 137°
2026-04-26 23:02 20.03921 -66.86167 40002 ft 482 kts 137°
2026-04-26 23:03 19.99820 -66.80529 40001 ft 486 kts 134°
2026-04-26 23:03 19.96375 -66.74267 40002 ft 493 kts 126°
2026-04-26 23:04 19.93190 -66.67832 40002 ft 491 kts 126°
2026-04-26 23:04 19.90012 -66.61461 40001 ft 491 kts 126°
2026-04-26 23:05 19.86802 -66.55054 40001 ft 491 kts 126°
2026-04-26 23:05 19.83582 -66.48638 40001 ft 492 kts 126°
2026-04-26 23:06 19.80374 -66.42202 40000 ft 492 kts 126°
2026-04-26 23:06 19.77164 -66.35788 39998 ft 492 kts 126°
2026-04-26 23:07 19.73939 -66.29366 39998 ft 493 kts 126°
2026-04-26 23:07 19.70721 -66.22967 39997 ft 493 kts 126°
2026-04-26 23:08 19.67488 -66.16548 39997 ft 493 kts 126°
2026-04-26 23:08 19.64248 -66.10123 39997 ft 493 kts 126°
2026-04-26 23:09 19.61012 -66.03712 39995 ft 493 kts 126°
2026-04-26 23:09 19.57777 -65.97311 40001 ft 493 kts 126°
2026-04-26 23:10 19.54535 -65.90900 40006 ft 492 kts 126°
2026-04-26 23:10 19.51307 -65.84527 40006 ft 491 kts 126°
2026-04-26 23:11 19.48074 -65.78150 40011 ft 491 kts 126°
2026-04-26 23:11 19.44846 -65.71770 40012 ft 491 kts 126°
2026-04-26 23:12 19.41640 -65.65447 40012 ft 490 kts 126°
2026-04-26 23:12 19.38406 -65.59096 40009 ft 489 kts 126°
2026-04-26 23:13 19.35173 -65.52760 40008 ft 488 kts 126°
2026-04-26 23:13 19.31951 -65.46447 40009 ft 487 kts 126°
2026-04-26 23:14 19.28738 -65.40119 40008 ft 487 kts 126°
2026-04-26 23:14 19.25502 -65.33823 40015 ft 487 kts 126°
2026-04-26 23:15 19.22271 -65.27531 40021 ft 486 kts 126°
2026-04-26 23:15 19.19041 -65.21242 40021 ft 485 kts 126°
2026-04-26 23:16 19.15823 -65.14980 40021 ft 485 kts 126°
2026-04-26 23:16 19.13155 -65.09770 40021 ft 485 kts 125°
2026-04-26 23:17 19.09425 -65.02472 40021 ft 485 kts 125°
2026-04-26 23:17 19.06750 -64.97258 40021 ft 484 kts 125°
2026-04-26 23:18 19.03533 -64.91002 40019 ft 483 kts 125°
2026-04-26 23:18 19.00320 -64.84762 40019 ft 483 kts 125°
2026-04-26 23:19 18.97111 -64.78537 40019 ft 483 kts 125°
2026-04-26 23:19 18.93895 -64.72305 40019 ft 482 kts 125°
2026-04-26 23:20 18.90685 -64.66091 40019 ft 482 kts 125°
2026-04-26 23:20 18.87492 -64.59916 40019 ft 482 kts 125°
2026-04-26 23:21 18.84273 -64.53698 40019 ft 482 kts 125°
2026-04-26 23:21 18.81063 -64.47503 40018 ft 480 kts 125°
2026-04-26 23:22 18.77850 -64.41309 40018 ft 480 kts 125°
2026-04-26 23:22 18.74641 -64.35129 40018 ft 480 kts 125°
2026-04-26 23:23 18.71435 -64.28960 40017 ft 479 kts 125°
2026-04-26 23:23 18.68223 -64.22786 40017 ft 479 kts 125°
2026-04-26 23:24 18.65013 -64.16623 40017 ft 479 kts 125°
2026-04-26 23:24 18.62209 -64.11243 40016 ft 478 kts 125°
2026-04-26 23:25 18.61308 -64.09517 40016 ft 478 kts 125°
2026-04-26 23:26 18.58103 -64.03375 40016 ft 477 kts 125°
2026-04-26 23:26 18.54904 -63.97251 40014 ft 477 kts 125°
2026-04-26 23:27 18.51700 -63.91093 39557 ft 479 kts 124°
2026-04-26 23:27 18.50093 -63.88022 38953 ft 477 kts 124°
2026-04-26 23:27 18.48483 -63.84950 38210 ft 480 kts 124°
2026-04-26 23:27 18.46872 -63.81880 37621 ft 478 kts 124°
2026-04-26 23:28 18.45265 -63.78819 36964 ft 478 kts 124°
2026-04-26 23:28 18.43651 -63.75746 36300 ft 478 kts 124°
2026-04-26 23:28 18.42040 -63.72680 35620 ft 478 kts 124°
2026-04-26 23:28 18.40426 -63.69608 34911 ft 479 kts 124°
2026-04-26 23:29 18.38803 -63.66540 34184 ft 480 kts 125°
2026-04-26 23:29 18.37034 -63.63575 33442 ft 478 kts 129°
2026-04-26 23:29 18.35161 -63.60683 32681 ft 478 kts 130°
2026-04-26 23:29 18.33266 -63.57790 31898 ft 480 kts 129°
2026-04-26 23:30 18.31411 -63.54926 31106 ft 482 kts 129°
2026-04-26 23:30 18.29530 -63.52004 30277 ft 483 kts 129°
2026-04-26 23:30 18.27642 -63.49058 29430 ft 485 kts 128°
2026-04-26 23:30 18.25754 -63.46112 28576 ft 487 kts 128°
2026-04-26 23:31 18.23851 -63.43139 27566 ft 491 kts 128°
2026-04-26 23:31 18.21942 -63.40155 26686 ft 491 kts 128°
2026-04-26 23:31 18.20088 -63.37224 25995 ft 487 kts 127°
2026-04-26 23:31 18.18178 -63.34222 25280 ft 483 kts 128°
2026-04-26 23:32 18.16310 -63.31300 24584 ft 478 kts 127°
2026-04-26 23:32 18.14463 -63.28416 23893 ft 474 kts 127°
2026-04-26 23:32 18.12631 -63.25560 23204 ft 469 kts 127°
2026-04-26 23:32 18.10820 -63.22737 22519 ft 465 kts 127°
2026-04-26 23:33 18.09024 -63.19938 21835 ft 461 kts 127°
2026-04-26 23:33 18.07224 -63.17135 21088 ft 457 kts 127°
2026-04-26 23:33 18.05364 -63.14441 20357 ft 451 kts 134°
2026-04-26 23:33 18.03154 -63.12215 19660 ft 442 kts 145°
2026-04-26 23:34 18.00672 -63.10376 18991 ft 434 kts 151°
2026-04-26 23:34 17.98086 -63.08793 18311 ft 428 kts 155°
2026-04-26 23:34 17.95441 -63.07392 17647 ft 422 kts 158°
2026-04-26 23:34 17.92792 -63.06105 16966 ft 418 kts 159°
2026-04-26 23:35 17.90159 -63.04837 16290 ft 415 kts 158°
2026-04-26 23:35 17.87557 -63.03558 15665 ft 411 kts 157°
2026-04-26 23:35 17.84993 -63.02282 15039 ft 406 kts 157°
2026-04-26 23:35 17.82446 -63.01008 14411 ft 402 kts 156°
2026-04-26 23:36 17.79931 -62.99744 13785 ft 398 kts 156°
2026-04-26 23:36 17.77444 -62.98492 13159 ft 395 kts 156°
2026-04-26 23:36 17.75003 -62.97255 12538 ft 391 kts 155°
2026-04-26 23:36 17.72559 -62.96017 11896 ft 389 kts 155°
2026-04-26 23:37 17.70130 -62.94790 11221 ft 387 kts 155°
2026-04-26 23:37 17.67709 -62.93569 10544 ft 384 kts 155°
2026-04-26 23:37 17.65309 -62.92360 9869 ft 382 kts 155°
2026-04-26 23:38 17.55332 -62.87339 9147 ft 289 kts 155°
2026-04-26 23:39 17.53541 -62.86439 9145 ft 282 kts 155°
2026-04-26 23:39 17.51792 -62.85559 9143 ft 276 kts 155°
2026-04-26 23:39 17.50075 -62.84697 9142 ft 271 kts 155°
2026-04-26 23:39 17.48354 -62.83913 9074 ft 269 kts 164°
2026-04-26 23:40 17.46506 -62.83841 8689 ft 274 kts 194°
2026-04-26 23:40 17.44778 -62.84728 8340 ft 275 kts 213°
2026-04-26 23:40 17.43238 -62.85879 8002 ft 275 kts 213°
2026-04-26 23:40 17.41655 -62.87013 7663 ft 275 kts 212°
2026-04-26 23:41 17.40052 -62.88106 7325 ft 274 kts 211°
2026-04-26 23:41 17.38442 -62.89184 6986 ft 274 kts 211°
2026-04-26 23:41 17.36839 -62.90252 6649 ft 273 kts 211°
2026-04-26 23:41 17.35232 -62.91320 6313 ft 272 kts 211°
2026-04-26 23:42 17.33636 -62.92384 5981 ft 271 kts 211°
2026-04-26 23:42 17.30489 -62.94481 5320 ft 262 kts 210°
2026-04-26 23:42 17.28966 -62.95479 5001 ft 257 kts 209°
2026-04-26 23:43 17.27313 -62.96057 4656 ft 247 kts 179°
2026-04-26 23:43 17.25717 -62.95561 4294 ft 240 kts 146°
2026-04-26 23:43 17.24510 -62.94437 4060 ft 230 kts 138°
2026-04-26 23:43 17.23295 -62.93394 3723 ft 224 kts 144°
2026-04-26 23:44 17.22002 -62.92459 3346 ft 222 kts 147°
2026-04-26 23:44 17.20722 -62.91580 3254 ft 223 kts 144°
2026-04-26 23:44 17.19703 -62.90406 3162 ft 216 kts 115°
2026-04-26 23:44 17.19610 -62.88885 3053 ft 214 kts 75°
2026-04-26 23:45 17.20464 -62.87664 2927 ft 207 kts 43°
2026-04-26 23:45 17.21540 -62.86720 2769 ft 195 kts 50°
2026-04-26 23:45 17.22123 -62.86015 2665 ft 185 kts 56°
2026-04-26 23:46 17.23767 -62.83494 2391 ft 165 kts 62°
2026-04-26 23:46 17.24382 -62.82493 2278 ft 162 kts 60°
2026-04-26 23:46 17.25012 -62.81507 2172 ft 163 kts 60°
2026-04-26 23:46 17.25641 -62.80522 2066 ft 162 kts 60°
2026-04-26 23:47 17.26252 -62.79561 1961 ft 155 kts 60°
2026-04-26 23:47 17.26851 -62.78617 1732 ft 156 kts 60°
2026-04-26 23:47 17.27441 -62.77685 1506 ft 152 kts 60°
2026-04-26 23:47 17.28021 -62.76767 1262 ft 150 kts 59°
2026-04-26 23:48 17.28587 -62.75873 1025 ft 151 kts 58°
2026-04-26 23:48 17.29168 -62.74956 791 ft 151 kts 58°
2026-04-26 23:48 17.29748 -62.74036 561 ft 151 kts 57°
2026-04-26 23:48 17.30319 -62.73124 335 ft 149 kts 57°
2026-04-26 23:49 17.30884 -62.72245 182 ft 138 kts 57°
2026-04-26 23:49 17.31303 -62.71572 176 ft 60 kts 55°
2026-04-26 23:49 17.31436 -62.71363 176 ft 26 kts 56°
2026-04-26 23:49 17.31503 -62.71257 176 ft 14 kts 56°
2026-04-26 23:50 17.31543 -62.71187 176 ft 7 kts 85°
2026-04-26 23:50 17.31558 -62.71162 176 ft 3 kts 307°
2026-04-26 23:50 17.31552 -62.71184 176 ft 3 kts 236°
2026-04-26 23:50 17.31522 -62.71229 176 ft 13 kts 236°
2026-04-26 23:51 17.31473 -62.71305 176 ft 11 kts 236°
2026-04-26 23:51 17.31435 -62.71351 176 ft 7 kts 212°
2026-04-26 23:51 17.31394 -62.71375 176 ft 7 kts 207°
2026-04-26 23:51 17.31351 -62.71396 176 ft 7 kts 211°
2026-04-26 23:52 17.31311 -62.71421 176 ft 7 kts 211°
2026-04-26 23:52 17.31255 -62.71457 176 ft 11 kts 211°
2026-04-26 23:52 17.31224 -62.71487 176 ft 4 kts 240°
2026-04-26 23:52 17.31216 -62.71501 176 ft 0 kts 240°
2026-04-26 23:53 17.31209 -62.71513 176 ft 8 kts 237°
2026-04-26 23:53 17.31193 -62.71539 176 ft 0 kts 237°
2026-04-26 23:55 17.31189 -62.71546 176 ft 10 kts 240°
2026-04-26 23:55 17.31157 -62.71573 176 ft 10 kts 167°
2026-04-26 23:55 17.31132 -62.71558 176 ft 10 kts 139°
2026-04-26 23:55 17.31114 -62.71531 176 ft 0 kts 107°